EA4BPO Weather Reports


Display with metric or nautical units.
time (UTC)temp
F
wind
direction
speed
MPH
gust
MPH
rain 1hr
in
rain 24hr
in
rain mn
in
humidity
%
barometer
mb
20260506114004 61 163 2.0 6.0 0.00 0.00 0.00 45 1012.1
20260506113525 61 170 3.0 8.0 0.00 0.00 0.00 46 1012.1
20260506113004 59 135 3.0 8.0 0.00 0.00 0.00 48 1012.6
20260506112504 58 64 2.0 7.0 0.00 0.00 0.00 48 1012.5
20260506112004 59 66 3.0 7.0 0.00 0.00 0.00 48 1012.3
20260506111504 60 78 3.0 8.0 0.00 0.00 0.00 47 1012.5
20260506111004 58 85 3.0 8.0 0.00 0.00 0.00 48 1012.5
20260506110504 59 129 2.0 8.0 0.00 0.00 0.00 48 1012.7
20260506110025 58 136 2.0 6.0 0.00 0.00 0.00 49 1012.5
20260506105525 58 60 3.0 9.0 0.00 0.00 0.00 50 1012.5
20260506105004 59 101 3.0 9.0 0.00 0.00 0.00 48 1012.5
20260506104504 59 149 3.0 7.0 0.00 0.00 0.00 48 1012.6
20260506104025 59 108 4.0 10.0 0.00 0.00 0.00 49 1012.6
20260506103525 58 78 4.0 10.0 0.00 0.00 0.00 48 1012.7
20260506103004 59 68 3.0 8.0 0.00 0.00 0.00 49 1012.6
20260506102504 59 38 2.0 9.0 0.00 0.00 0.00 49 1012.7
20260506102025 58 38 3.0 9.0 0.00 0.00 0.00 50 1012.6
20260506101504 59 43 2.0 9.0 0.00 0.00 0.00 49 1012.9
20260506101004 58 67 3.0 7.0 0.00 0.00 0.00 52 1012.7
20260506100503 58 87 3.0 7.0 0.00 0.00 0.00 53 1012.7
20260506100004 58 82 3.0 7.0 0.00 0.00 0.00 51 1012.9
20260506095504 56 63 4.0 9.0 0.00 0.00 0.00 54 1013.1
20260506095025 56 59 4.0 9.0 0.00 0.00 0.00 57 1012.9
20260506094504 56 82 4.0 9.0 0.00 0.00 0.00 55 1012.8
20260506094004 56 76 5.0 11.0 0.00 0.00 0.00 56 1012.7
20260506093504 55 62 5.0 11.0 0.00 0.00 0.00 55 1012.9
20260506093004 56 72 5.0 11.0 0.00 0.00 0.00 58 1012.9
20260506092503 55 75 6.0 11.0 0.00 0.00 0.00 58 1012.8
20260506092024 55 76 6.0 11.0 0.00 0.00 0.00 57 1012.9
20260506091524 55 68 5.0 11.0 0.00 0.00 0.00 59 1012.9
20260506091004 55 62 5.0 10.0 0.00 0.00 0.00 60 1012.9
20260506090504 54 59 5.0 10.0 0.00 0.00 0.00 61 1013.0
20260506090004 55 71 4.0 10.0 0.00 0.00 0.00 60 1012.9
20260506085504 55 87 4.0 13.0 0.00 0.00 0.00 60 1012.9
20260506085004 54 76 4.0 13.0 0.00 0.00 0.00 61 1012.9
20260506084504 54 66 3.0 8.0 0.00 0.00 0.00 63 1012.9
20260506084004 54 52 3.0 8.0 0.00 0.00 0.00 64 1013.0
20260506083504 53 49 4.0 9.0 0.00 0.00 0.00 66 1013.0
20260506083004 53 52 5.0 9.0 0.00 0.00 0.00 67 1012.9
20260506082503 52 56 4.0 9.0 0.00 0.00 0.00 66 1012.8
20260506082004 52 63 4.0 8.0 0.00 0.00 0.00 67 1012.9
20260506081504 52 43 4.0 8.0 0.00 0.00 0.00 66 1013.0
20260506081025 52 44 3.0 8.0 0.00 0.00 0.00 66 1012.9
20260506080503 52 61 3.0 9.0 0.00 0.00 0.00 67 1012.9
20260506073503 50 43 3.0 7.0 0.00 0.00 0.00 70 1013.0
20260506073004 50 46 4.0 7.0 0.00 0.00 0.00 70 1012.9
20260506072504 49 53 4.0 7.0 0.00 0.00 0.00 72 1012.9
20260506072003 49 62 4.0 7.0 0.00 0.00 0.00 72 1012.8
20260506071525 49 58 3.0 7.0 0.00 0.00 0.00 72 1012.8
20260506071003 49 57 3.0 7.0 0.00 0.00 0.00 72 1012.9
20260506070503 48 49 4.0 7.0 0.00 0.00 0.00 73 1012.9
20260506062004 49 49 3.0 7.0 0.00 0.00 0.00 73 1012.5
20260506061504 48 62 3.0 7.0 0.00 0.00 0.00 74 1012.6
20260506061003 48 63 3.0 7.0 0.00 0.00 0.00 73 1012.2
20260506060504 48 55 3.0 7.0 0.00 0.00 0.00 74 1012.1
20260506051024 46 51 4.0 8.0 0.00 0.00 0.00 78 1012.0
20260506050525 46 51 4.0 8.0 0.00 0.00 0.00 78 1012.0
20260506045004 46 42 4.0 8.0 0.00 0.00 0.00 78 1011.9
20260506044503 46 49 4.0 8.0 0.00 0.00 0.00 79 1011.7
20260506044004 46 39 4.0 8.0 0.00 0.00 0.00 79 1011.8
20260506043503 46 39 4.0 8.0 0.00 0.00 0.00 80 1011.6
20260506043004 46 50 3.0 7.0 0.00 0.00 0.00 80 1011.9
20260506042503 46 47 3.0 8.0 0.00 0.00 0.00 80 1011.7
20260506042003 46 48 3.0 8.0 0.00 0.00 0.00 80 1011.8
20260506041503 46 51 3.0 8.0 0.00 0.00 0.00 80 1011.8
20260506041003 46 44 3.0 8.0 0.00 0.00 0.00 80 1011.8
20260506040504 46 37 3.0 7.0 0.00 0.00 0.00 80 1012.0
20260506040004 46 44 3.0 7.0 0.00 0.00 0.00 80 1012.0
20260506035504 46 47 4.0 7.0 0.00 0.00 0.00 80 1011.9
20260506035004 46 48 3.0 7.0 0.00 0.00 0.00 80 1011.9
20260506034524 46 51 3.0 7.0 0.00 0.00 0.00 80 1011.9
20260506034004 46 53 3.0 7.0 0.00 0.00 0.00 80 1012.0
20260506033503 46 56 3.0 8.0 0.00 0.00 0.00 79 1012.0
20260506033004 46 56 3.0 8.0 0.00 0.00 0.00 79 1012.0
20260506032503 46 55 3.0 7.0 0.00 0.00 0.00 78 1012.0
20260506032004 47 54 4.0 8.0 0.00 0.00 0.00 78 1011.8
20260506031525 47 56 4.0 8.0 0.00 0.00 0.00 77 1012.2
20260506031003 47 48 4.0 8.0 0.00 0.00 0.00 77 1012.0
20260506030504 47 45 3.0 8.0 0.00 0.00 0.00 76 1012.0
20260506030004 47 52 4.0 7.0 0.00 0.00 0.00 76 1012.1
20260506025503 47 47 3.0 7.0 0.00 0.00 0.00 76 1012.2
20260506025004 47 38 2.0 6.0 0.00 0.00 0.00 75 1012.0
20260506024503 48 42 2.0 6.0 0.00 0.00 0.00 75 1012.1
20260506024003 48 53 2.0 6.0 0.00 0.00 0.00 75 1012.3
20260506023503 48 54 3.0 7.0 0.00 0.00 0.00 74 1012.1
20260506023003 48 52 3.0 7.0 0.00 0.00 0.00 74 1012.0
20260506022504 48 52 3.0 7.0 0.00 0.00 0.00 73 1012.3
20260506022003 48 53 2.0 6.0 0.00 0.00 0.00 73 1012.1
20260506021503 49 61 2.0 4.0 0.00 0.00 0.00 72 1012.3
20260506021003 49 62 2.0 6.0 0.00 0.00 0.00 71 1012.3
20260506020503 49 61 2.0 6.0 0.00 0.00 0.00 70 1012.1
20260506020024 49 56 2.0 4.0 0.00 0.00 0.00 69 1012.1
20260506015503 50 53 2.0 3.0 0.00 0.00 0.00 68 1012.2
20260506015004 50 59 2.0 4.0 0.00 0.00 0.00 68 1012.2
20260506014504 50 48 2.0 4.0 0.00 0.00 0.00 68 1012.2
20260506014024 50 43 2.0 7.0 0.00 0.00 0.00 68 1012.3
20260506013503 50 54 2.0 7.0 0.00 0.00 0.00 68 1012.2
20260506013024 50 61 2.0 6.0 0.00 0.00 0.00 68 1012.2
20260506012503 50 50 2.0 6.0 0.00 0.00 0.00 68 1012.2
20260506012003 50 41 2.0 4.0 0.00 0.00 0.00 68 1012.1
20260506011503 50 46 2.0 4.0 0.00 0.00 0.00 68 1012.3
20260506011003 50 52 2.0 4.0 0.00 0.00 0.00 68 1012.6
20260506010504 50 49 2.0 4.0 0.00 0.00 0.00 68 1012.5
20260506010003 50 51 2.0 6.0 0.00 0.00 0.00 68 1012.7
20260506005504 50 50 3.0 6.0 0.00 0.00 0.00 68 1012.7
20260506005024 50 52 2.0 4.0 0.00 0.00 0.00 68 1012.5
20260506004504 50 48 2.0 4.0 0.00 0.00 0.00 67 1012.7
20260506004003 50 40 2.0 4.0 0.00 0.00 0.00 67 1012.8
20260506003504 50 43 2.0 6.0 0.00 0.00 0.00 66 1012.8
20260506003003 51 54 3.0 6.0 0.00 0.00 0.00 66 1012.7
20260506002503 51 55 3.0 8.0 0.00 0.00 0.00 66 1012.6
20260506002003 51 48 3.0 8.0 0.00 0.00 0.00 65 1012.8
20260506001524 51 45 2.0 7.0 0.00 0.00 0.00 65 1012.9
20260506001003 51 36 3.0 6.0 0.00 0.00 0.00 65 1012.7
20260506000503 51 33 2.0 6.0 0.00 0.00 0.00 65 1012.6
20260506000004 51 38 2.0 4.0 0.00 0.00 0.00 65 1012.8
20260505235503 51 39 2.0 4.0 0.00 0.00 0.00 65 1012.8
20260505235003 51 46 2.0 4.0 0.00 0.00 0.00 65 1012.8
20260505234503 51 47 2.0 4.0 0.00 0.00 0.00 65 1012.9
20260505234003 51 31 2.0 4.0 0.00 0.00 0.00 65 1013.0
20260505233503 51 31 2.0 6.0 0.00 0.00 0.00 64 1012.8
20260505233003 52 40 2.0 7.0 0.00 0.00 0.00 64 1012.7
20260505232503 52 35 3.0 7.0 0.00 0.00 0.00 64 1012.7
20260505232003 52 23 3.0 9.0 0.00 0.00 0.00 64 1012.8
20260505231503 52 19 3.0 9.0 0.00 0.00 0.00 63 1012.8
20260505231003 52 20 4.0 8.0 0.00 0.00 0.00 62 1012.7
20260505230504 52 33 3.0 7.0 0.00 0.00 0.00 61 1012.7
20260505230003 52 58 3.0 7.0 0.00 0.00 0.00 60 1012.7
20260505225524 53 66 3.0 8.0 0.00 0.00 0.00 59 1012.5
20260505225003 53 51 3.0 8.0 0.00 0.00 0.00 57 1012.8
20260505224503 54 15 2.0 4.0 0.00 0.00 0.00 54 1012.5
20260505224004 55 350 2.0 4.0 0.00 0.00 0.00 54 1012.3
20260505223503 55 340 2.0 4.0 0.00 0.00 0.00 54 1012.3
20260505223003 55 330 2.0 6.0 0.00 0.00 0.00 53 1012.5
20260505222503 55 334 2.0 6.0 0.00 0.00 0.00 52 1012.3
20260505222004 55 337 2.0 4.0 0.00 0.00 0.00 52 1012.3
20260505221503 55 331 1.0 3.0 0.00 0.00 0.00 52 1012.2
20260505221003 55 331 1.0 3.0 0.00 0.00 0.00 52 1012.5
20260505220503 55 281 1.0 3.0 0.00 0.00 0.00 52 1012.3
20260505220004 55 288 2.0 6.0 0.00 0.00 0.00 52 1012.5
20260505215503 56 294 3.0 8.0 0.00 0.00 0.00 51 1012.5
20260505215003 56 290 2.0 8.0 0.00 0.00 0.00 50 1012.2
20260505214503 56 279 2.0 7.0 0.00 0.00 0.00 50 1012.5
20260505214003 56 287 3.0 7.0 0.00 0.00 0.00 49 1012.6
20260505213503 56 291 2.0 8.0 0.00 0.00 0.00 49 1012.6
20260505213003 56 286 3.0 8.0 0.00 0.00 0.00 48 1012.8
20260505212503 57 277 3.0 8.0 0.00 0.00 0.00 48 1012.8
20260505212003 57 270 3.0 7.0 0.00 0.00 0.00 47 1012.5
20260505211503 57 281 3.0 7.0 0.00 0.00 0.00 47 1012.6
20260505211003 57 281 3.0 7.0 0.00 0.00 0.00 46 1012.8
20260505210503 57 272 2.0 7.0 0.00 0.00 0.00 46 1012.6
20260505210003 57 282 2.0 7.0 0.00 0.00 0.00 45 1012.7
20260505205503 57 300 2.0 6.0 0.00 0.00 0.00 45 1012.8
20260505205003 58 290 3.0 8.0 0.00 0.00 0.00 45 1012.3
20260505204524 58 276 3.0 8.0 0.00 0.00 0.00 44 1012.9
20260505204003 58 276 3.0 7.0 0.00 0.00 0.00 44 1012.5
20260505203503 58 274 3.0 8.0 0.00 0.00 0.00 43 1012.5
20260505203003 58 271 2.0 8.0 0.00 0.00 0.00 44 1012.5
20260505202503 58 269 3.0 9.0 0.00 0.00 0.00 44 1012.5
20260505202004 58 273 4.0 10.0 0.00 0.00 0.00 43 1012.6
20260505201524 58 274 3.0 10.0 0.00 0.00 0.00 43 1012.6
20260505201003 58 284 3.0 8.0 0.00 0.00 0.00 43 1012.2
20260505200503 58 308 3.0 8.0 0.00 0.00 0.00 43 1012.2
20260505200004 58 311 2.0 7.0 0.00 0.00 0.00 43 1012.1
20260505195503 58 332 2.0 10.0 0.00 0.00 0.00 42 1012.1
20260505195024 59 339 3.0 13.0 0.00 0.00 0.00 42 1011.9
20260505194524 59 320 3.0 13.0 0.00 0.00 0.00 42 1011.9
20260505194003 59 304 4.0 10.0 0.00 0.00 0.00 41 1011.9
20260505193524 59 313 4.0 15.0 0.00 0.00 0.00 41 1011.8
20260505193003 59 312 4.0 15.0 0.00 0.00 0.00 41 1011.6
20260505192503 59 307 3.0 11.0 0.00 0.00 0.00 40 1011.8
20260505192024 60 311 3.0 13.0 0.00 0.00 0.00 39 1011.7
20260505191503 60 314 3.0 13.0 0.00 0.00 0.00 38 1011.4
20260505191003 60 317 4.0 13.0 0.00 0.00 0.00 38 1011.5
20260505190503 60 330 4.0 13.0 0.00 0.00 0.00 39 1011.4
20260505190004 60 329 3.0 11.0 0.00 0.00 0.00 39 1011.3
20260505185503 61 318 3.0 11.0 0.00 0.00 0.00 39 1011.3
20260505185003 61 307 2.0 7.0 0.00 0.00 0.00 39 1011.3
20260505184503 61 306 3.0 8.0 0.00 0.00 0.00 39 1011.3
20260505184024 61 307 3.0 8.0 0.00 0.00 0.00 39 1011.3
20260505183503 61 286 3.0 9.0 0.00 0.00 0.00 39 1011.3
20260505183003 61 297 3.0 10.0 0.00 0.00 0.00 40 1011.3
20260505182503 62 298 3.0 11.0 0.00 0.00 0.00 39 1011.1
20260505182003 61 291 4.0 11.0 0.00 0.00 0.00 39 1011.2
20260505181503 62 308 5.0 13.0 0.00 0.00 0.00 37 1011.2
20260505181003 62 322 5.0 13.0 0.00 0.00 0.00 37 1011.1
20260505180503 63 339 4.0 14.0 0.00 0.00 0.00 37 1011.2
20260505180003 62 343 4.0 14.0 0.00 0.00 0.00 38 1011.2
20260505175503 62 340 4.0 8.0 0.00 0.00 0.00 38 1011.0
20260505175003 63 289 4.0 11.0 0.00 0.00 0.00 37 1011.1
20260505174503 63 266 5.0 11.0 0.00 0.00 0.00 37 1011.1
20260505174003 63 299 5.0 14.0 0.00 0.00 0.00 38 1010.8
20260505173503 63 322 4.0 14.0 0.00 0.00 0.00 38 1011.0
20260505173003 63 307 4.0 13.0 0.00 0.00 0.00 37 1011.1
20260505172503 63 284 5.0 13.0 0.00 0.00 0.00 37 1010.7
20260505172003 63 268 5.0 9.0 0.00 0.00 0.00 37 1011.1
20260505171503 62 285 4.0 13.0 0.00 0.00 0.00 37 1011.1
20260505171003 62 288 4.0 13.0 0.00 0.00 0.00 38 1011.1
20260505170503 62 285 4.0 10.0 0.00 0.00 0.00 38 1011.2
20260505170003 62 273 5.0 11.0 0.00 0.00 0.00 38 1011.2
20260505165503 62 257 7.0 13.0 0.00 0.00 0.00 38 1011.2
20260505165003 62 259 7.0 14.0 0.00 0.00 0.00 38 1011.2
20260505164503 62 266 7.0 14.0 0.00 0.00 0.00 38 1011.0
20260505164003 62 265 6.0 15.0 0.00 0.00 0.00 39 1011.0
20260505163503 62 278 5.0 15.0 0.00 0.00 0.00 38 1011.2
20260505163003 63 298 4.0 11.0 0.00 0.00 0.00 37 1011.0
20260505162503 65 315 4.0 11.0 0.00 0.00 0.00 36 1011.1
20260505162003 65 301 4.0 13.0 0.00 0.00 0.00 35 1010.7
20260505161503 64 261 5.0 13.0 0.00 0.00 0.00 35 1011.0
20260505161003 63 267 7.0 16.0 0.00 0.00 0.00 36 1010.8
20260505160503 63 293 7.0 16.0 0.00 0.00 0.00 36 1010.6
20260505153003 64 258 7.0 19.0 0.00 0.00 0.00 34 1011.0
20260505152501 65 270 4.0 16.0 0.00 0.00 0.00 34 1011.0
20260505152001 63 297 3.0 6.0 0.00 0.00 0.00 36 1011.0